Tracking 19564 objects as of 19-Mar-2019
HD Live streaming from Space Station
objects crossing your sky now

COSMOS 1522

Track COSMOS 1522 now!
10-day predictions
COSMOS 1522 is classified as:


NORAD ID: 14611
Int'l Code: 1984-001A
Perigee: 1,468.4 km
Apogee: 1,499.8 km
Inclination: 74.0 °
Period: 115.5 minutes
Semi major axis: 7855 km
RCS: 0.7164 m2 (medium)
Launch date: January 5, 1984
Source: Commonwealth of Independent States (former USSR) (CIS)
Launch site: PLESETSK MISSILE AND SPACE COMPLEX (PKMTR)
aabbcc
Your satellite tracking list
Your tracking list is empty




NASA's NSSDC Master Catalog

Two Line Element Set (TLE):
1 14611U 84001A   19077.13138001 -.00000003 +00000-0 +90622-4 0  9994
2 14611 074.0097 326.7756 0020038 174.7783 295.2194 12.47023762602259
Source of the keplerian elements: AFSPC